Location: Huberhof
(49.2050°N, 7.4980°E)
Time: 05:29:17
(UTC+00:00)

SL-4 R/B - Pass Details

Date: 29 October 2020
Orbit: 427 x 665 km, 51.6° (Epoch: 25 November)

Event Time Altitude Azimuth Distance (km) Brightness Sun altitude
Rises 19:08:12 0° 289° (WNW) 2,478 6.6 -29.0°
Reaches altitude 10° 19:10:20 10° 282° (WNW) 1,632 5.4 -29.3°
Enters shadow 19:11:52 22° 269° (W) 1,086 4.1 -29.6°
